Location: Unspecified
(48.8656°N, 0.0000°E)
Time: 06:55:52
(UTC+00:00)

Vanguard 1 - Pass Details

Date: 24 June 2019
Orbit: 653 x 3830 km, 34.3° (Epoch: 15 July)

Event Time Altitude Azimuth Distance (km) Brightness Sun altitude
Rises 01:41:21 0° 224° (SW) 7,854 - -14.4°
Reaches altitude 10° 01:47:48 10° 217° (SW) 6,584 - -14.0°
Exits shadow 01:50:56 15° 212° (SSW) 5,961 13.4 -13.8°
Maximum altitude 02:04:14 34° 163° (SSE) 3,791 12.7 -12.8°
Drops below altitude 10° 02:14:49 10° 105° (ESE) 4,268 13.5 -11.9°
Sets 02:17:56 0° 95° (E) 4,887 14.0 -11.6°
